Regional Weather Roundup
Issued by NWS Kansas City/Pleasant Hill, MO

Home | Current Version | Previous Version | Graphics & Text | Print | Product List | Glossary Off
Versions: 1 2 3 4 5 6 7 8 9 10 11 12 13 14 15 16 17 18 19 20 21 22 23 24 25 26 27 28 29 30 31 32 33 34 35 36 37 38 39 40 41 42 43 44 45 46 47 48 49 50

000
ASUS43 KEAX 110610
RWREAX

WEATHER ROUNDUP FOR EASTERN KANSAS AND NORTHWEST MISSOURI
NATIONAL WEATHER SERVICE KANSAS CITY/PLEASANT HILL MO
1200 AM CST SUN DEC 11 2016

KSZ040-057-103>105-MOZ028-029-037-043-110700-
...KANSAS CITY METROPOLITAN AREA...

CITY           SKY/WX    TMP DP  RH WIND       PRES   REMARKS
K.C. INTL      CLOUDY    38  21  50 S14       29.93F WCI  30
6HR MIN TEMP:  36; 6HR MAX TEMP:  38;

K.C. DOWNTOWN  CLOUDY    41  23  48 S7        29.96F
6HR MIN TEMP:  38; 6HR MAX TEMP:  41;

LEES SUMMIT    CLOUDY    38  22  52 SE13      29.96F WCI  30
6HR MIN TEMP:  36; 6HR MAX TEMP:  38;

OLATHE - IXD   CLOUDY    40  23  50 S18       29.94F WCI  31
6HR MIN TEMP:  36; 6HR MAX TEMP:  40;

OLATHE - OJC   CLOUDY    39  23  52 S15       29.94F WCI  31
6HR MIN TEMP:  35; 6HR MAX TEMP:  40;

LAWRENCE       CLOUDY    37  24  59 SE9       29.93F WCI  30

$$

MOZ001>008-011>017-020>025-030>033-038>040-044>046-053-054-110700-
...NORTHERN AND CENTRAL MISSOURI...

CITY           SKY/WX    TMP DP  RH WIND       PRES   REMARKS
ST. JOSEPH     CLOUDY    36  20  52 S9        29.95F WCI  29
6HR MIN TEMP:  34; 6HR MAX TEMP:  36;

MOSBY          CLOUDY    36  23  60 SE7       29.98F WCI  30
WARRENSBURG    CLOUDY    36  21  55 SE10      30.01F WCI  28
WHITEMAN AFB   CLOUDY    37  20  49 S12       30.00F WCI  30
6HR MIN TEMP:  37; 6HR MAX TEMP:  38;

CLINTON        CLOUDY    37  19  48 S10G16    30.04F WCI  30
SEDALIA        CLOUDY    38  19  46 S15       30.05F WCI  29
6HR MIN TEMP:  37; 6HR MAX TEMP:  38;

WARSAW         NOT AVBL
CHILLICOTHE      N/A     35  19  52 SE10      30.01F WCI  27
6HR MIN TEMP:  32; 6HR MAX TEMP:  35;

KIRKSVILLE     CLOUDY    32  19  58 SE12      30.05F WCI  23
6HR MIN TEMP:  30; 6HR MAX TEMP:  32;


$$

MOZ041-047>049-056>058-063>065-088>090-097-110700-
...EASTERN AND SOUTHERN MISSOURI...

CITY           SKY/WX    TMP DP  RH WIND       PRES   REMARKS
ST. LOUIS INTL CLOUDY    37  18  46 S9        30.19R WCI  30
6HR MIN TEMP:  34; 6HR MAX TEMP:  37;

SPIRIT OF STL  CLOUDY    37  17  44 S6        30.18S WCI  32
COLUMBIA       CLOUDY    35  16  45 S13       30.09F WCI  26
JEFFERSON CITY CLOUDY    37  17  44 SE8       30.12F WCI  31
ROLLA          CLOUDY    34  19  54 S15G22    30.09F WCI  24
OSAGE BEACH    CLOUDY    37  20  50 S12G17    30.10F WCI  29
SPRINGFIELD    CLOUDY    38  20  48 S16       30.04F WCI  29
BRANSON        CLOUDY    39  23  52 SE10G18   30.08F WCI  32
JOPLIN         CLOUDY    44  26  49 S17       30.01F
WEST PLAINS    CLOUDY    36  22  56 S15G23    30.15F WCI  27

$$

IAZ060-094-KSZ022-034>040-054-083-096-NEZ052-066-093-110700-
...KANSAS...SOUTHEAST NEBRASKA AND IOWA...

CITY           SKY/WX    TMP DP  RH WIND       PRES   REMARKS
TOPEKA         CLOUDY    38  24  57 SE9       29.91F WCI  31
6HR MIN TEMP:  34; 6HR MAX TEMP:  39;

MANHATTAN      CLOUDY    35  24  64 S6        29.85F WCI  30
EMPORIA        CLOUDY    38  27  64 S16       29.87F WCI  29
CHANUTE        CLOUDY    43  31  62 S20G28    29.94F WCI  34
WICHITA        CLOUDY    38  32  79 S20G29    29.80F WCI  28
OMAHA          CLOUDY    31  19  61 SE14      29.88F WCI  21
LINCOLN        CLOUDY    32  21  64 S9        29.85F WCI  24
FALLS CITY     CLOUDY    34  21  59 SE12      29.89F WCI  25
LAMONI         CLOUDY    32  18  56 SE15      29.96F WCI  22
DES MOINES     CLOUDY    28  20  71 E7        29.99F WCI  21

$$




USA.gov is the U.S. government's official web portal to all federal, state and local government web resources and services.